[Iaude] MPEC V99: 2016 VC4 [a=2.20,e=0.43,i=25.2,H=20.7]

mpec at si.edu mpec at si.edu
Thu Nov 10 13:25:31 EST 2016


M.P.E.C. 2016-V99                                Issued 2016 Nov. 10, 18:21 UT
 
     The Minor Planet Electronic Circulars contain information on unusual
         minor planets and routine data on comets.  They are published
    on behalf of Division F of the International Astronomical Union by the
          Minor Planet Center, Smithsonian Astrophysical Observatory,
                          Cambridge, MA 02138, U.S.A.

             Prepared using the Tamkin Foundation Computer Network

                              MPC at CFA.HARVARD.EDU
            URL http://www.minorplanetcenter.net/    ISSN 1523-6714


                                   2016 VC4
 
Observations:
     K16V04C  C2016 11 03.57921 04 46 38.467-07 57 20.59         21.3 wLEV099F51
     K16V04C  C2016 11 03.59054 04 46 39.105-07 58 06.04         21.2 wLEV099F51
     K16V04C* C2016 11 08.50625 04 51 26.217-13 28 59.71         21.0 wLEV099F51
     K16V04C  C2016 11 08.51830 04 51 26.759-13 29 48.23         20.1 wLEV099F51
     K16V04C  C2016 11 08.53038 04 51 27.325-13 30 36.95         20.0 wLEV099F51
     K16V04C KC2016 11 09.21347304 52 04.22 -14 16 11.7          20.7 RtEV099W86
     K16V04C KC2016 11 09.21658304 52 04.35 -14 16 24.2          20.9 RtEV099W86
     K16V04C KC2016 11 09.22176204 52 04.59 -14 16 45.1          20.8 RtEV099W86
     K16V04C |C2016 11 09.25211 04 52 05.94 -14 18 47.2          20.8 VuEV099807
     K16V04C |C2016 11 09.25436 04 52 06.04 -14 18 56.2          21.1 VuEV099807
     K16V04C KC2016 11 09.31238604 52 08.64 -14 22 49.6          20.7 RtEV099W86
     K16V04C KC2016 11 09.31651704 52 08.82 -14 23 06.1          20.6 RtEV099W86
     K16V04C KC2016 11 09.32064704 52 09.02 -14 23 22.7          20.7 RtEV099W86
     K16V04C |C2016 11 10.18981 04 52 54.74 -15 21 31.0          21.1 VuEV099807
     K16V04C |C2016 11 10.19343 04 52 54.92 -15 21 45.2          21.0 VuEV099807
 
Observer details:
807 Cerro Tololo.  Observers T. Linder, R. Holmes.  0.61-m f/6.5 astrograph
    + CCD.
F51 Pan-STARRS 1, Haleakala.  Observers B. Gibson, T. Goggia, S. Kahale,
    A. Schultz, M. Willman.  Measurers K. Chambers, S. Chastel, L. Denneau,
    H. Flewelling, M. Huber, E. Lilly, E. Magnier, R. Wainscoat, C. Waters,
    R. Weryk.  1.8-m Ritchey-Chretien + CCD.
W86 Cerro Tololo-LCOGT B.  Observers T. Lister, S. Greenstreet, E. Gomez.
    Measurer T. Lister.  1.0-m f/8 Ritchey-Chretien + CCD.
 
Orbital elements:
2016 VC4                                                 Earth MOID = 0.4100 AU
Epoch 2016 July 31.0 TT = JDT 2457600.5                 MPC
M 315.49203              (2000.0)            P               Q
n   0.30232839     Peri.  243.24696     +0.00967370     -0.97904380
a   2.1986196      Node   208.52645     +0.99977478     +0.01331262
e   0.4282386      Incl.   25.21099     +0.01888962     -0.20321421
P   3.26           H   20.7           G   0.15           U   7
Residuals in seconds of arc
161103 F51  0.1-  0.0     161109 W86  0.2+  0.1-    161109 W86  0.1+  0.0
161103 F51  0.1+  0.0     161109 W86  0.0   0.1-    161109 W86  0.0   0.0
161108 F51  0.0   0.0     161109 W86  0.1+  0.1-    161109 W86  0.2+  0.0
161108 F51  0.1-  0.0     161109 807  0.0   0.1+    161110 807  0.3-  0.2-
161108 F51  0.1+  0.0     161109 807  0.0   0.1+    161110 807  0.0   0.2+

Ephemeris:
2016 VC4                 a,e,i = 2.20, 0.43, 25                  q = 1.2571
Date    TT    R. A. (2000) Decl.     Delta      r     Elong.  Phase     V
2016 10 11    04 13 52.9 +14 08 16   0.5750  1.4544   133.3    29.9    21.6
...
2016 10 26    04 36 31.2 +01 15 21   0.4715  1.3895   140.2    27.3    21.0
...
2016 11 03    04 46 02.2 -07 18 25   0.4390  1.3588   140.2    27.8    20.8
...
2016 11 09    04 51 52.5 -14 01 55   0.4257  1.3380   138.1    29.6    20.8
2016 11 10    04 52 44.5 -15 08 53   0.4244  1.3347   137.6    30.0    20.8
2016 11 11    04 53 34.7 -16 15 29   0.4233  1.3315   137.1    30.4    20.8
...
2016 11 17    04 57 59.1 -22 41 53   0.4217  1.3134   133.1    33.3    20.8
...
2016 11 25    05 02 20.2 -30 18 45   0.4304  1.2928   127.0    37.6    20.9
...
2016 12 10    05 07 28.7 -40 24 00   0.4684  1.2663   116.7    44.0    21.3

A. U. Tomatic                (C) Copyright 2016 MPC           M.P.E.C. 2016-V99




More information about the Iaude mailing list